Time,TemperatureF,DewpointF,PressureIn,WindDirection,WindDirectionDegrees,WindSpeedMPH,WindSpeedGustMPH,Humidity,HourlyPrecipIn,Conditions,Clouds,dailyrainin,SoftwareType,DateUTC
2013-08-11 00:13:00,62.4,61.0,30.11,SSE,155,1.0,2.0,95,0.00,,,0.00,weatherlink.com 1.10,2013-08-11 04:13:00,
2013-08-11 00:28:00,61.8,60.0,30.12,SSE,155,1.0,2.0,94,0.00,,,0.00,weatherlink.com 1.10,2013-08-11 04:28:00,
2013-08-11 00:43:00,61.6,60.0,30.11,SSE,155,0.0,1.0,95,0.00,,,0.00,weatherlink.com 1.10,2013-08-11 04:43:00,
2013-08-11 00:58:00,61.2,60.0,30.11,SSE,155,0.0,2.0,95,0.00,,,0.00,weatherlink.com 1.10,2013-08-11 04:58:00,
2013-08-11 01:13:00,60.7,59.0,30.11,SSE,155,0.0,1.0,95,0.00,,,0.00,weatherlink.com 1.10,2013-08-11 05:13:00,
2013-08-11 01:28:00,60.3,59.0,30.11,SSE,155,1.0,1.0,95,0.00,,,0.00,weatherlink.com 1.10,2013-08-11 05:28:00,
2013-08-11 01:58:00,60.0,59.0,30.11,SSE,155,0.0,0.0,96,0.00,,,0.00,weatherlink.com 1.10,2013-08-11 05:58:00,
2013-08-11 02:13:00,59.9,59.0,30.11,SSE,155,0.0,1.0,96,0.00,,,0.00,weatherlink.com 1.10,2013-08-11 06:13:00,
2013-08-11 02:28:00,60.0,59.0,30.11,SSE,155,0.0,2.0,96,0.00,,,0.00,weatherlink.com 1.10,2013-08-11 06:28:00,
2013-08-11 02:58:00,58.9,58.0,30.11,SSE,155,0.0,1.0,96,0.00,,,0.00,weatherlink.com 1.10,2013-08-11 06:58:00,
2013-08-11 03:13:00,58.5,57.0,30.11,SSE,155,0.0,1.0,95,0.00,,,0.00,weatherlink.com 1.10,2013-08-11 07:13:00,
2013-08-11 03:28:00,58.1,57.0,30.11,SSE,155,0.0,1.0,95,0.00,,,0.00,weatherlink.com 1.10,2013-08-11 07:28:00,
2013-08-11 03:43:00,58.1,57.0,30.11,SSE,155,0.0,1.0,96,0.00,,,0.00,weatherlink.com 1.10,2013-08-11 07:43:00,
2013-08-11 03:58:00,57.8,57.0,30.11,SSE,155,0.0,1.0,96,0.00,,,0.00,weatherlink.com 1.10,2013-08-11 07:58:00,
2013-08-11 04:13:00,57.6,57.0,30.11,SSE,155,0.0,1.0,96,0.00,,,0.00,weatherlink.com 1.10,2013-08-11 08:13:00,
2013-08-11 04:28:00,57.4,56.0,30.11,SSE,155,0.0,1.0,96,0.00,,,0.00,weatherlink.com 1.10,2013-08-11 08:28:00,
2013-08-11 04:43:00,57.2,56.0,30.11,SSE,155,0.0,0.0,96,0.00,,,0.00,weatherlink.com 1.10,2013-08-11 08:43:00,
2013-08-11 04:58:00,57.1,56.0,30.11,SSE,155,0.0,1.0,97,0.00,,,0.00,weatherlink.com 1.10,2013-08-11 08:58:00,
2013-08-11 05:13:00,56.9,56.0,30.11,SSE,155,0.0,1.0,97,0.00,,,0.00,weatherlink.com 1.10,2013-08-11 09:13:00,
2013-08-11 05:43:00,56.9,56.0,30.11,SSE,155,0.0,0.0,96,0.00,,,0.00,weatherlink.com 1.10,2013-08-11 09:43:00,
2013-08-11 05:58:00,56.9,56.0,30.11,SSE,155,0.0,1.0,97,0.00,,,0.00,weatherlink.com 1.10,2013-08-11 09:58:00,
2013-08-11 06:13:00,56.6,56.0,30.12,SSE,155,0.0,1.0,96,0.00,,,0.00,weatherlink.com 1.10,2013-08-11 10:13:00,
2013-08-11 06:28:00,56.4,56.0,30.12,SSE,155,0.0,0.0,97,0.00,,,0.00,weatherlink.com 1.10,2013-08-11 10:28:00,
2013-08-11 06:43:00,56.2,55.0,30.12,SSE,155,0.0,0.0,97,0.00,,,0.00,weatherlink.com 1.10,2013-08-11 10:43:00,
2013-08-11 06:58:00,56.0,55.0,30.12,SSE,155,0.0,0.0,97,0.00,,,0.00,weatherlink.com 1.10,2013-08-11 10:58:00,
2013-08-11 07:13:00,56.9,56.0,30.12,SSE,155,0.0,1.0,97,0.00,,,0.00,weatherlink.com 1.10,2013-08-11 11:13:00,
2013-08-11 07:28:00,57.8,57.0,30.13,SSE,155,0.0,2.0,97,0.00,,,0.00,weatherlink.com 1.10,2013-08-11 11:28:00,
2013-08-11 07:43:00,59.1,58.0,30.12,SSE,155,0.0,1.0,97,0.00,,,0.00,weatherlink.com 1.10,2013-08-11 11:43:00,
2013-08-11 07:58:00,60.5,59.0,30.12,SSE,155,0.0,1.0,95,0.00,,,0.00,weatherlink.com 1.10,2013-08-11 11:58:00,
2013-08-11 08:13:00,62.2,60.0,30.12,SSE,153,1.0,1.0,91,0.00,,,0.00,weatherlink.com 1.10,2013-08-11 12:13:00,
2013-08-11 08:43:00,64.0,61.0,30.11,NNE,13,1.0,2.0,89,0.00,,,0.00,weatherlink.com 1.10,2013-08-11 12:43:00,
2013-08-11 08:58:00,65.5,62.0,30.11,NNW,347,1.0,2.0,89,0.00,,,0.00,weatherlink.com 1.10,2013-08-11 12:58:00,
2013-08-11 09:13:00,67.3,63.0,30.12,NE,42,1.0,2.0,86,0.00,,,0.00,weatherlink.com 1.10,2013-08-11 13:13:00,
2013-08-11 09:28:00,68.6,62.0,30.11,SSW,205,2.0,4.0,80,0.00,,,0.00,weatherlink.com 1.10,2013-08-11 13:28:00,
2013-08-11 09:44:00,70.1,63.0,30.12,SSE,150,4.0,4.0,79,0.00,,,0.00,weatherlink.com 1.10,2013-08-11 13:44:00,
2013-08-11 09:59:00,71.0,62.0,30.12,SSW,196,2.0,7.0,73,0.00,,,0.00,weatherlink.com 1.10,2013-08-11 13:59:00,
2013-08-11 10:14:00,71.3,62.0,30.12,South,171,1.0,5.0,73,0.00,,,0.00,weatherlink.com 1.10,2013-08-11 14:14:00,
2013-08-11 10:44:00,72.5,64.0,30.12,SSE,154,4.0,6.0,74,0.00,,,0.00,weatherlink.com 1.10,2013-08-11 14:44:00,
2013-08-11 10:59:00,73.2,62.0,30.12,South,190,3.0,6.0,68,0.00,,,0.00,weatherlink.com 1.10,2013-08-11 14:59:00,
2013-08-11 11:14:00,73.4,61.0,30.11,ESE,112,1.0,7.0,65,0.00,,,0.00,weatherlink.com 1.10,2013-08-11 15:14:00,
2013-08-11 11:29:00,74.7,64.0,30.11,South,186,3.0,6.0,69,0.00,,,0.00,weatherlink.com 1.10,2013-08-11 15:29:00,
2013-08-11 11:44:00,75.1,62.0,30.11,SSW,203,1.0,6.0,63,0.00,,,0.00,weatherlink.com 1.10,2013-08-11 15:44:00,
2013-08-11 11:59:00,75.0,61.0,30.10,South,185,2.0,6.0,63,0.00,,,0.00,weatherlink.com 1.10,2013-08-11 15:59:00,
2013-08-11 12:14:00,75.6,63.0,30.11,SW,221,3.0,7.0,64,0.00,,,0.00,weatherlink.com 1.10,2013-08-11 16:14:00,
2013-08-11 12:29:00,76.5,61.0,30.10,West,273,0.0,3.0,59,0.00,,,0.00,weatherlink.com 1.10,2013-08-11 16:29:00,
2013-08-11 12:44:00,77.2,61.0,30.10,NE,34,2.0,3.0,58,0.00,,,0.00,weatherlink.com 1.10,2013-08-11 16:44:00,
2013-08-11 12:59:00,76.5,62.0,30.09,North,5,1.0,3.0,62,0.00,,,0.00,weatherlink.com 1.10,2013-08-11 16:59:00,
2013-08-11 13:29:00,77.1,59.0,30.09,NNE,30,2.0,4.0,54,0.00,,,0.00,weatherlink.com 1.10,2013-08-11 17:29:00,
2013-08-11 13:59:00,77.8,59.0,30.08,NW,311,3.0,8.0,52,0.00,,,0.00,weatherlink.com 1.10,2013-08-11 17:59:00,
2013-08-11 14:29:00,78.0,60.0,30.09,SW,234,6.0,6.0,55,0.00,,,0.00,weatherlink.com 1.10,2013-08-11 18:29:00,
2013-08-11 15:14:00,79.4,59.0,30.07,SSW,200,2.0,5.0,49,0.00,,,0.00,weatherlink.com 1.10,2013-08-11 19:14:00,
2013-08-11 15:29:00,78.1,62.0,30.07,SSE,148,1.0,6.0,58,0.00,,,0.00,weatherlink.com 1.10,2013-08-11 19:29:00,
2013-08-11 15:44:00,77.8,62.0,30.07,SW,221,2.0,3.0,58,0.00,,,0.00,weatherlink.com 1.10,2013-08-11 19:44:00,
2013-08-11 15:59:00,77.8,62.0,30.06,South,190,1.0,5.0,58,0.00,,,0.00,weatherlink.com 1.10,2013-08-11 19:59:00,
2013-08-11 16:14:00,78.2,60.0,30.06,WSW,257,1.0,4.0,53,0.00,,,0.00,weatherlink.com 1.10,2013-08-11 20:14:00,
2013-08-11 16:29:00,77.6,60.0,30.06,WSW,244,1.0,3.0,54,0.00,,,0.00,weatherlink.com 1.10,2013-08-11 20:29:00,
2013-08-11 16:45:00,78.2,63.0,30.06,NNW,348,1.0,2.0,59,0.00,,,0.00,weatherlink.com 1.10,2013-08-11 20:45:00,
2013-08-11 17:00:00,78.9,61.0,30.05,SSE,158,2.0,5.0,54,0.00,,,0.00,weatherlink.com 1.10,2013-08-11 21:00:00,
2013-08-11 17:15:00,79.5,63.0,30.05,NNW,335,2.0,7.0,58,0.00,,,0.00,weatherlink.com 1.10,2013-08-11 21:15:00,
2013-08-11 17:30:00,79.4,63.0,30.05,South,190,1.0,6.0,58,0.00,,,0.00,weatherlink.com 1.10,2013-08-11 21:30:00,
2013-08-11 17:45:00,78.4,63.0,30.04,ENE,59,1.0,1.0,60,0.00,,,0.00,weatherlink.com 1.10,2013-08-11 21:45:00,
2013-08-11 18:00:00,78.2,64.0,30.04,NNW,344,0.0,3.0,62,0.00,,,0.00,weatherlink.com 1.10,2013-08-11 22:00:00,
2013-08-11 18:15:00,78.5,62.0,30.04,SW,234,1.0,2.0,57,0.00,,,0.00,weatherlink.com 1.10,2013-08-11 22:15:00,
2013-08-11 18:30:00,79.8,61.0,30.03,SW,222,1.0,5.0,53,0.00,,,0.00,weatherlink.com 1.10,2013-08-11 22:30:00,
2013-08-11 19:00:00,79.5,61.0,30.03,SW,217,0.0,3.0,53,0.00,,,0.00,weatherlink.com 1.10,2013-08-11 23:00:00,
2013-08-11 19:30:00,76.5,64.0,30.03,SW,219,0.0,2.0,65,0.00,,,0.00,weatherlink.com 1.10,2013-08-11 23:30:00,
2013-08-11 19:45:00,74.5,63.0,30.03,SSE,152,0.0,2.0,67,0.00,,,0.00,weatherlink.com 1.10,2013-08-11 23:45:00,
2013-08-11 20:15:00,72.1,61.0,30.03,North,9,0.0,1.0,67,0.00,,,0.00,weatherlink.com 1.10,2013-08-12 00:15:00,
2013-08-11 21:00:00,70.0,61.0,30.04,North,9,0.0,1.0,72,0.00,,,0.00,weatherlink.com 1.10,2013-08-12 01:00:00,
2013-08-11 21:15:00,69.3,61.0,30.05,North,9,0.0,0.0,74,0.00,,,0.00,weatherlink.com 1.10,2013-08-12 01:15:00,
2013-08-11 21:30:00,69.1,62.0,30.05,North,9,0.0,1.0,79,0.00,,,0.00,weatherlink.com 1.10,2013-08-12 01:30:00,
2013-08-11 22:00:00,68.7,62.0,30.05,North,9,0.0,1.0,80,0.00,,,0.00,weatherlink.com 1.10,2013-08-12 02:00:00,
2013-08-11 22:15:00,68.5,63.0,30.06,North,9,0.0,0.0,81,0.00,,,0.00,weatherlink.com 1.10,2013-08-12 02:15:00,
2013-08-11 22:30:00,68.3,63.0,30.06,North,9,0.0,0.0,82,0.00,,,0.00,weatherlink.com 1.10,2013-08-12 02:30:00,
2013-08-11 22:45:00,68.1,62.0,30.06,North,9,0.0,1.0,80,0.00,,,0.00,weatherlink.com 1.10,2013-08-12 02:45:00,
2013-08-11 23:00:00,68.3,62.0,30.06,North,9,0.0,1.0,79,0.00,,,0.00,weatherlink.com 1.10,2013-08-12 03:00:00,
2013-08-11 23:15:00,68.1,62.0,30.06,North,9,0.0,1.0,81,0.00,,,0.00,weatherlink.com 1.10,2013-08-12 03:15:00,
2013-08-11 23:30:00,67.9,63.0,30.06,North,9,0.0,0.0,83,0.00,,,0.00,weatherlink.com 1.10,2013-08-12 03:30:00,
2013-08-11 23:45:00,67.5,64.0,30.06,North,9,0.0,1.0,88,0.00,,,0.00,weatherlink.com 1.10,2013-08-12 03:45:00,